This demonstration page uses our WeatherBlox Daily Observations layout. Learn more.

Left ArrowRight Arrow

39.01783, -85.05884

Hourly Observations for February 27, 2020

Temp ( °F °C ) Dew Point ( °F °C ) Humidity (%) Winds ( mph kmh ) Pressure ( in mb ) Visibility ( mi km ) Precip ( " mm )
12:52 am 00:52 Cloudy 28 -2.2 20 -6.7 72 72 WNW 10 17 30.04 1017 10 16 N/A
1:52 am 01:52 Cloudy 28 -2.2 19 -7.2 69 69 WNW 20 31 30.05 1018 10 16 N/A
2:52 am 02:52 Cloudy 27 -2.8 17 -8.3 66 66 WNW 20 31 30.06 1018 10 16 N/A
3:52 am 03:52 Cloudy 27 -2.8 16 -8.9 63 63 NW 14 22 30.06 1018 10 16 N/A
4:30 am 04:30 Windy with Snow Likely 26 -3.3 18 -7.8 71 71 WNW 21 33 30.12 1020 8 13 0.00 0.00
4:52 am 04:52 Windy with Snow Likely 26 -3.3 15 -9.4 63 63 W 21 33 30.08 1019 9 14 0.00 0.00
5:52 am 05:52 Cloudy 25 -3.9 15 -9.4 66 66 W 21 33 30.10 1019 10 16 0.00 0.00
6:24 am 06:24 Cloudy 24 -4.4 14 -10 65 65 W 18 30 30.15 1021 10 16 N/A
6:52 am 06:52 Cloudy 24 -4.4 12 -11.1 60 60 WNW 18 30 30.11 1020 10 16 N/A
7:52 am 07:52 Cloudy 25 -3.9 13 -10.6 60 60 W 9 15 30.12 1020 10 16 N/A
8:52 am 08:52 Cloudy 26 -3.3 15 -9.4 63 63 W 10 17 30.13 1020 10 16 N/A
9:52 am 09:52 Cloudy 28 -2.2 16 -8.9 60 60 W 15 24 30.13 1020 10 16 N/A
10:52 am 10:52 Cloudy 29 -1.7 17 -8.3 61 61 W 14 22 30.12 1020 10 16 N/A
11:52 am 11:52 Cloudy 31 -0.6 16 -8.9 54 54 W 16 26 30.11 1020 10 16 N/A
12:52 pm 12:52 Mostly Cloudy 33 0.6 17 -8.3 52 52 W 15 24 30.10 1019 10 16 N/A
1:52 pm 13:52 Windy with Snow Likely 33 0.6 16 -8.9 49 49 WNW 22 35 30.09 1019 8 13 0.00 0.00
2:52 pm 14:52 Cloudy 34 1.1 17 -8.3 50 50 WNW 20 31 30.09 1019 10 16 0.00 0.00
3:52 pm 15:52 Cloudy 34 1.1 17 -8.3 50 50 W 16 26 30.09 1019 9 14 0.00 0.00
4:52 pm 16:52 Cloudy 34 1.1 17 -8.3 50 50 WSW 17 28 30.09 1019 10 16 N/A
5:52 pm 17:52 Mostly Cloudy 33 0.6 18 -7.8 54 54 WSW 14 22 30.09 1019 10 16 N/A
6:52 pm 18:52 Cloudy 33 0.6 19 -7.2 56 56 SW 9 15 30.08 1019 10 16 N/A
7:52 pm 19:52 Cloudy 32 undefined 20 -6.7 61 61 SW 10 17 30.07 1018 10 16 N/A
8:52 pm 20:52 Cloudy 33 0.6 20 -6.7 58 58 SW 13 20 30.07 1018 10 16 N/A
9:52 pm 21:52 Cloudy 33 0.6 20 -6.7 58 58 SW 9 15 30.06 1018 10 16 N/A
10:52 pm 22:52 Cloudy 34 1.1 21 -6.1 59 59 SW 13 20 30.05 1018 10 16 N/A
11:52 pm 23:52 Cloudy 34 1.1 22 -5.6 61 61 WSW 14 22 30.04 1017 10 16 N/A

Powered by AerisWeather